ID

Sensor

Location

Temperature

Pressure

Humidity

Timestamp

14043 BME280 Office 20.57 47.72 2022-11-06 22:31:18
14042 BME280 Office 20.53 47.73 2022-11-06 22:21:18
14041 BME280 Office 20.54 47.71 2022-11-06 22:11:17
14040 BME280 Office 20.56 47.72 2022-11-06 22:01:17
14039 BME280 Office 20.58 47.63 2022-11-06 21:51:17
14038 BME280 Office 20.61 47.63 2022-11-06 21:41:16
14037 BME280 Office 20.62 47.62 2022-11-06 21:31:16
14036 BME280 Office 20.64 47.56 2022-11-06 21:21:15
14035 BME280 Office 20.66 47.50 2022-11-06 21:11:15
14034 BME280 Office 20.67 47.43 2022-11-06 21:01:15
14033 BME280 Office 20.69 47.46 2022-11-06 20:51:14
14032 BME280 Office 20.71 47.44 2022-11-06 20:41:14
14031 BME280 Office 20.73 47.38 2022-11-06 20:31:13
14030 BME280 Office 20.76 47.29 2022-11-06 20:21:13
14029 BME280 Office 20.80 47.20 2022-11-06 20:11:13
14028 BME280 Office 20.82 47.15 2022-11-06 20:01:12
14027 BME280 Office 20.84 47.05 2022-11-06 19:51:12
14026 BME280 Office 20.86 46.98 2022-11-06 19:41:12
14025 BME280 Office 20.88 46.96 2022-11-06 19:31:11
14024 BME280 Office 20.89 46.87 2022-11-06 19:21:11
14023 BME280 Office 20.91 46.81 2022-11-06 19:11:10
14022 BME280 Office 20.94 46.67 2022-11-06 19:01:10
14021 BME280 Office 20.95 46.53 2022-11-06 18:51:10
14020 BME280 Office 20.97 46.53 2022-11-06 18:41:09
14019 BME280 Office 20.99 46.42 2022-11-06 18:31:09
14018 BME280 Office 21.01 46.32 2022-11-06 18:21:09
14017 BME280 Office 21.02 46.30 2022-11-06 18:11:08
14016 BME280 Office 21.04 46.24 2022-11-06 18:01:08
14015 BME280 Office 21.06 46.17 2022-11-06 17:51:07
14014 BME280 Office 21.07 46.14 2022-11-06 17:41:07
14013 BME280 Office 21.09 46.09 2022-11-06 17:31:07
14012 BME280 Office 21.11 45.99 2022-11-06 17:21:06
14011 BME280 Office 21.13 45.91 2022-11-06 17:11:06
14010 BME280 Office 21.14 45.84 2022-11-06 17:01:06
14009 BME280 Office 21.15 45.78 2022-11-06 16:51:05
14008 BME280 Office 21.17 45.73 2022-11-06 16:41:05
14007 BME280 Office 21.19 45.67 2022-11-06 16:31:05
14006 BME280 Office 21.21 45.52 2022-11-06 16:21:04
14005 BME280 Office 21.23 45.57 2022-11-06 16:11:04
14004 BME280 Office 21.26 45.52 2022-11-06 16:01:04
14003 BME280 Office 21.29 45.63 2022-11-06 15:51:03
14002 BME280 Office 21.32 45.58 2022-11-06 15:41:03
14001 BME280 Office 21.36 45.70 2022-11-06 15:31:02
14000 BME280 Office 21.40 45.53 2022-11-06 15:21:02
13999 BME280 Office 21.44 45.83 2022-11-06 15:11:02
13998 BME280 Office 21.47 45.78 2022-11-06 15:01:01
13997 BME280 Office 21.52 45.69 2022-11-06 14:51:01
13996 BME280 Office 21.59 45.70 2022-11-06 14:41:00
13995 BME280 Office 21.68 45.93 2022-11-06 14:31:00
13994 BME280 Office 21.71 46.05 2022-11-06 14:21:00